Weather Roundup
Issued by NWS Springfield, MO

Home | Current Version | Previous Version | Text Only | Print | Product List | Glossary On
Versions: 1 2 3 4 5 6 7 8 9 10 11 12 13 14 15 16 17 18 19 20 21 22 23 24 25 26 27 28 29 30 31 32 33 34 35 36 37 38 39 40 41 42 43 44 45 46 47 48 49 50
091
NZUS99 KSGF 291707
HRRSGF

HOURLY WEATHER
NATIONAL WEATHER SERVICE SPRINGFIELD MO
1200 PM CDT THU JUN 29 2017

......SGF CWA......

CITY           SKY/WX    TMP DP  RH WIND       PRES   REMARKS
SPRINGFIELD    MOSUNNY   83  71  67 SE13      29.92F
JOPLIN         SUNNY     86  72  62 SW15G24   29.88F HX  92
WEST PLAINS    PTSUNNY   83  68  60 S13       29.98F
ROLLA          CLOUDY    82  69  64 SW8       29.93F
OSAGE BEACH    PTSUNNY   86  71  60 S8        29.92F HX  91
BRANSON        PTSUNNY   82  68  61 S9        29.97R

......SURROUNDING SGF CWA......

CITY           SKY/WX    TMP DP  RH WIND       PRES   REMARKS
CHANUTE        CLOUDY    77  69  76 NE8       29.86F
PARSONS        CLOUDY    83  70  64 S7        29.86R
COFFEYVILLE    MOSUNNY   88  72  58 S13G26    29.83S HX  94
EMPORIA        CLOUDY    68  67  96 E9        29.85F
GROVE OK       MOSUNNY   86  70  58 S13       29.91F HX  90
ROGERS AR      PTSUNNY   82  68  62 S13       29.95S
SILOAM SPRINGS PTSUNNY   82  68  61 S15       29.94S
HARRISON AR    PTSUNNY   81  68  64 SE13      29.97R
NEAR YELLVILLE PTSUNNY   82  64  54 SE7       29.93S

......KANSAS AND MISSOURI......

CITY           SKY/WX    TMP DP  RH WIND       PRES   REMARKS
KANSAS CTY INT CLOUDY    69  67  93 S17       29.79F
DOWNTOWN KC    CLOUDY    71  67  87 SE15G23   29.79R
COLUMBIA       CLOUDY    77  71  82 S7        29.92F
SEDALIA        TSTM      72  71  97 N15G23    29.95R
ST JOSEPH      CLOUDY    72  69  90 S15       29.77F
ST LOUIS       PTSUNNY   89  68  49 SW14G24   29.90S HX  93
SPIRIT OF STL  PTSUNNY   85  70  60 SW10G21   29.89F
WICHITA        CLOUDY    83  70  64 S15       29.79F
TOPEKA         CLOUDY    70  68  93 SE16G23   29.80F
OLATHE         CLOUDY    68  66  93 S18G28    29.86R

......TENNESSEE......

CITY           SKY/WX    TMP DP  RH WIND       PRES   REMARKS
MEMPHIS        PTSUNNY   83  71  67 S17       30.01S
NASHVILLE      PTSUNNY   85  69  58 S13G24    30.06F

......ARKANSAS.......

CITY           SKY/WX    TMP DP  RH WIND       PRES   REMARKS
FAYETTEVILLE   CLOUDY    79  69  71 S10       29.95S
FT SMITH       PTSUNNY   85  72  65 SE5       29.90S HX  91
LITTLE ROCK    CLOUDY    80  72  76 S8        29.97F

......OKLAHOMA.......

CITY           SKY/WX    TMP DP  RH WIND       PRES   REMARKS
TULSA          PTSUNNY   87  72  60 S17G24    29.83S HX  93
PONCA CITY     MOSUNNY   88  69  53 S13G24    29.77F HX  92
MCALESTER      PTSUNNY   85  71  63 S9G17     29.89F HX  90
OKLAHOMA CITY  MOSUNNY   88  70  55 S23G31    29.80F HX  93

......IOWA............

CITY           SKY/WX    TMP DP  RH WIND       PRES   REMARKS
DES MOINES     CLOUDY    77  67  71 SW12      29.80S
QUAD CITIES    CLOUDY    76  64  66 SW12      29.85R

......ILLINOIS........

CITY           SKY/WX    TMP DP  RH WIND       PRES   REMARKS
QUINCY         CLOUDY    72  64  76 W9        29.89R
CHICAGO        PTSUNNY   79  66  64 W16       29.82R




USA.gov is the U.S. government's official web portal to all federal, state and local government web resources and services.